Tracking 29777 objects as of 5-Oct-2024
HD Live streaming from Space Station
objects crossing your sky now

COSMOS 505

Track COSMOS 505 now!
10-day predictions
COSMOS 505 is classified as:


NORAD ID: 6118
Int'l Code: 1972-057B
Perigee: 1,359.4 km
Apogee: 1,502.4 km
Inclination: 74.0 °
Period: 114.3 minutes
Semi major axis: 7801 km
RCS: 0.7076 m2 (medium)
Launch date: July 20, 1972
Source: Commonwealth of Independent States (former USSR) (CIS)
Launch site: PLESETSK MISSILE AND SPACE COMPLEX (PKMTR)
Your satellite tracking list
Your tracking list is empty




NASA's NSSDC Master Catalog

Two Line Element Set (TLE):
1 06118U 72057B   24278.65743559  .00000032  00000-0  27185-3 0  9995
2 06118  74.0296 333.1838 0091643  74.9490  43.4008 12.59804448400920
Source of the keplerian elements: AFSPC